Regional Weather Roundup
Issued by NWS Sioux Falls, SD

Home | Current Version | Previous Version | Text Only | Print | Product List | Glossary On
Versions: 1 2 3 4 5 6 7 8 9 10 11 12 13 14 15 16 17 18 19 20 21 22 23 24 25 26 27 28 29 30 31 32 33 34 35 36 37 38 39 40 41 42 43 44 45 46 47 48 49 50
000
ASUS43 KFSD 300810
RWRFSD

WEATHER ROUNDUP FOR SE SOUTH DAKOTA/SW MINNESOTA/NW IOWA
NATIONAL WEATHER SERVICE SIOUX FALLS SD
300 AM CDT FRI SEP 30 2016

NOTE: "FAIR" INDICATES FEW OR NO CLOUDS BELOW 12,000 FEET WITH NO
SIGNIFICANT WEATHER AND OR OBSTRUCTIONS TO VISIBILITY.


SDZ038>040-050-052>070-300900-
SOUTHEAST SOUTH DAKOTA

CITY           SKY/WX    TMP DP  RH WIND       PRES   REMARKS
BROOKINGS      CLEAR     45  44  97 CALM      30.35F
CHAMBERLAIN    CLEAR     49  48  94 SE6       30.28S
HURON          CLEAR     49  45  86 SE9       30.31S
MADISON        FAIR      45  45 100 CALM      30.35F
MITCHELL       CLEAR     48  45  89 S6        30.33S
SIOUX FALLS    CLEAR     46  44  93 NE5       30.36R
WINNER         FAIR      53  44  71 S16       30.26F
YANKTON        CLEAR     46  45  93 NE6       30.32F
$$

MNZ071-072-080-081-089-090-097-098-300900-
SOUTHWEST MINNESOTA

CITY           SKY/WX    TMP DP  RH WIND       PRES   REMARKS
FAIRMONT       CLEAR     45  44  97 N5        30.36S
JACKSON        CLEAR     43  41  93 CALM      30.36F
LUVERNE        CLEAR     45  41  87 CALM      30.36F
MARSHALL       CLEAR     41  39  93 W5        30.37F
MONTEVIDEO     CLEAR     46  46 100 S3        30.39S
PIPESTONE      CLEAR     48  45  87 E3        30.36S
REDWOOD FALLS  CLEAR     48  46  93 CALM      30.37S
TRACY          CLEAR     47  46  95 CALM      30.37S
WINDOM         CLEAR     46  45  93 CALM      30.36F
WORTHINGTON    CLEAR     45  43  93 CALM      30.36
$$

IAZ001>003-012>014-020>022-031-032-NEZ013-014-SDZ071-300900-
NORTHWEST IOWA

CITY           SKY/WX    TMP DP  RH WIND       PRES   REMARKS
CHEROKEE       CLEAR     42  42 100 CALM      30.34F
DENISON        CLEAR     45  43  93 CALM      30.31S
ESTHERVILLE    CLEAR     43  43 100 N3        30.35S
LE MARS        CLEAR     45  43  93 CALM      30.35S
SHELDON        CLEAR     46  46 100 CALM      30.33F
SIOUX CITY     PTCLDY    46  45  96 NW3       30.34S
SPENCER        CLEAR     42  41  96 CALM      30.35F
STORM LAKE     CLEAR     50  48  93 NE5       30.34F
$$

ABBREVIATIONS USED IN REMARKS
   TC - TEMPERATURE IN CELSIUS
  WCI - WIND CHILL INDEX
   HX - HEAT INDEX
  VSB - VISIBILITY





USA.gov is the U.S. government's official web portal to all federal, state and local government web resources and services.